Regional Weather Roundup
Issued by NWS Albany, NY

Home | Current Version | Previous Version | Text Only | Print | Product List | Glossary On
Versions: 1 2 3 4 5 6 7 8 9 10 11 12 13 14 15 16 17 18 19 20 21 22 23 24 25 26 27 28 29 30 31 32 33 34 35 36 37 38 39 40 41 42 43 44 45 46 47 48 49 50
000
ASUS41 KALY 010910
RWRALY

NEW YORK STATE HOURLY WEATHER ROUNDUP
NATIONAL WEATHER SERVICE ALBANY NY
500 AM EDT TUE SEP 01 2015

NOTE: "FAIR" INDICATES FEW OR NO CLOUDS BELOW 12,000 FEET WITH NO
SIGNIFICANT WEATHER AND/OR NO OBSTRUCTIONS TO VISIBILITY.

NYZ032-033-038>043-046>054-057>066-NYZ062>081-011000-
EAST


CITY           SKY/WX    TMP DP  RH WIND       PRES   REMARKS
ALBANY         PTCLDY    64  60  87 CALM      30.04R
GLENS FALLS    CLEAR     59  57  93 CALM      30.03S FOG
POUGHKEEPSIE   CLEAR     64  61  90 CALM      30.02R
MONTGOMERY     CLEAR     65  63  93 CALM      30.02S FOG
WHITE PLAINS   CLEAR     69  65  86 NW3       30.01S
ISLIP          MOCLDY    72  67  84 CALM      29.98S
NEW YORK CITY  PTCLDY    77  67  71 CALM      29.99F
CENTRAL PARK   CLEAR     78  65  63 CALM      30.03F
$$

NYZ005>009-017-018-044>046-055-056-011000-
CENTRAL


CITY           SKY/WX    TMP DP  RH WIND       PRES   REMARKS
FULTON         CLOUDY    63  61  93 CALM      30.05R FOG
SYRACUSE       PTCLDY    65  64  97 CALM      30.05R
ROME           PTCLDY    61  60  97 E3        30.07S
ELMIRA         FOG       60  60 100 CALM      30.07S VSB 1/4
BINGHAMTON     CLOUDY    67  65  93 NW3       30.09S
MONTICELLO     MOCLDY    61  59  94 CALM      30.09R VSB 1/2
$$

NYZ026>034-041>043-011000-
NORTH


CITY           SKY/WX    TMP DP  RH WIND       PRES   REMARKS
WATERTOWN      PTCLDY    58  57  97 CALM      30.03S FOG
FORT DRUM      NOT AVBL
MASSENA        FOG       56  55  97 CALM      30.04S VSB 1/4
SARANAC LAKE   FOG       52  52 100 CALM      30.07S VSB<1/4
PLATTSBURGH    CLEAR     60  59  96 CALM      30.03R FOG
$$

NYZ001>004-010>016-019>021-011000-
WEST


CITY           SKY/WX    TMP DP  RH WIND       PRES   REMARKS
NIAGARA FALLS  FOG       61  60  97 CALM      30.06S VSB 1/2
BUFFALO        MOCLDY    70  68  93 SW6       30.07S FOG
DUNKIRK        MOCLDY    65  63  93 CALM      30.08R
JAMESTOWN      CLOUDY    59  57  94 CALM      30.12S VSB<1/4
WELLSVILLE     PTCLDY    61  60  97 W5        30.14S FOG
ROCHESTER      CLOUDY    68  65  90 SW7       30.06S FOG
PENN YAN       CLEAR     66  63  90 SW3       30.08R FOG
$$

             KEY
       WCI = WIND CHILL INDEX
       VSB = VISIBILITY
       HX  = HEAT INDEX
$$


USA.gov is the U.S. government's official web portal to all federal, state and local government web resources and services.